DW1114 Weather Reports


time (UTC)temp
C
wind
direction
speed
KPH
gust
KPH
rain 1hr
cm
rain 24hr
cm
rain mn
cm
humidity
%
barometer
mb
20260507032903 7 203 0.0 1.6 0.00 0.00 0.00 1013.6
20260507032404 7 203 0.0 4.8 0.00 0.00 0.00 1013.6
20260507031903 7 202 0.0 4.8 0.00 0.00 0.00 1013.9
20260507031403 7 203 0.0 9.7 0.00 0.00 0.00 1013.6
20260507030904 7 202 0.0 9.7 0.00 0.00 0.00 1013.6
20260507030403 7 203 0.0 11.3 0.00 0.00 0.00 1014.3
20260507025903 7 203 0.0 11.3 0.00 0.00 0.00 1013.6
20260507025445 7 202 0.0 4.8 0.00 0.00 0.00 1013.6
20260507024904 7 203 0.0 4.8 0.00 0.00 0.00 1013.9
20260507024403 7 202 0.0 11.3 0.00 0.00 0.00 1013.6
20260507023903 8 202 0.0 11.3 0.00 0.00 0.00 1013.9
20260507023403 8 340 0.0 9.7 0.00 0.00 0.00 1013.6
20260507022946 7 225 0.0 9.7 0.00 0.00 0.00 1013.6
20260507022403 8 224 0.0 9.7 0.00 0.00 0.00 1013.9
20260507021903 8 202 0.0 8.0 0.00 0.00 0.00 1013.6
20260507021404 8 203 0.0 8.0 0.00 0.00 0.00 1013.9
20260507020903 8 202 0.0 9.7 0.00 0.00 0.00 1013.6
20260507020445 8 202 0.0 9.7 0.00 0.00 0.00 1013.6
20260507015903 9 185 0.0 9.7 0.00 0.00 0.00 1013.6
20260507015445 8 228 0.0 9.7 0.00 0.00 0.00 1012.9
20260507014903 9 331 0.0 9.7 0.00 0.00 0.00 1013.2
20260507014404 9 350 0.0 8.0 0.00 0.00 0.00 1012.9
20260507013903 9 309 0.0 8.0 0.00 0.00 0.00 1013.2
20260507013403 10 298 0.0 8.0 0.00 0.00 0.00 1012.9
20260507012902 10 344 0.0 8.0 0.00 0.00 0.00 1013.2
20260507012403 10 309 0.0 6.4 0.00 0.00 0.00 1012.9
20260507011903 10 342 0.0 3.2 0.00 0.00 0.00 1012.9
20260507011403 10 326 0.0 6.4 0.00 0.00 0.00 1013.2
20260507010904 10 328 0.0 6.4 0.00 0.00 0.00 1013.6
20260507010403 10 315 3.2 4.8 0.00 0.00 0.00 1013.9
20260507005903 10 287 3.2 8.0 0.00 0.00 0.00 1013.6
20260507005425 10 278 0.0 8.0 0.00 0.00 0.00 1013.6
20260507004903 10 328 0.0 9.7 0.00 0.00 0.00 1013.2
20260507004403 10 252 1.6 9.7 0.00 0.00 0.00 1012.9
20260507003924 10 310 1.6 8.0 0.00 0.00 0.00 1012.9
20260507003424 11 287 3.2 4.8 0.00 0.00 0.00 1013.2
20260507002903 11 328 0.0 3.2 0.00 0.00 0.00 1013.6
20260507002403 11 287 0.0 8.0 0.00 0.00 0.00 1012.9
20260507001903 11 277 0.0 8.0 0.00 0.00 0.00 1012.9
20260507001404 11 282 3.2 8.0 0.00 0.00 0.00 1013.2
20260507000903 11 301 0.0 8.0 0.00 0.00 0.00 1012.9
20260507000405 11 289 4.8 8.0 0.00 0.00 0.00 1012.9
20260506235903 11 301 4.8 8.0 0.00 0.00 0.00 1012.6
20260506235424 11 317 1.6 9.7 0.00 0.00 0.00 1012.6
20260506234902 11 292 4.8 11.3 0.00 0.00 0.00 1012.9
20260506234403 11 288 8.0 11.3 0.00 0.00 0.00 1012.9
20260506233904 11 291 3.2 9.7 0.00 0.00 0.00 1012.9
20260506233403 12 300 4.8 9.7 0.00 0.00 0.00 1012.9
20260506232903 12 317 3.2 12.9 0.00 0.00 0.00 1012.6
20260506232403 12 300 3.2 12.9 0.00 0.00 0.00 1012.6
20260506231903 12 321 4.8 11.3 0.00 0.00 0.00 1012.6
20260506231403 12 300 4.8 9.7 0.00 0.00 0.00 1012.9
20260506230903 12 331 1.6 14.5 0.00 0.00 0.00 1012.6
20260506230424 12 283 8.0 14.5 0.00 0.00 0.00 1012.6
20260506225903 12 308 6.4 11.3 0.00 0.00 0.00 1012.9
20260506225424 13 343 4.8 11.3 0.00 0.00 0.00 1012.9
20260506224903 12 324 4.8 11.3 0.00 0.00 0.00 1013.2
20260506224403 12 331 1.6 9.7 0.00 0.00 0.00 1012.9
20260506223903 12 348 0.0 9.7 0.00 0.00 0.00 1012.9
20260506223424 11 271 4.8 9.7 0.00 0.00 0.00 1013.2
20260506222903 11 293 4.8 12.9 0.00 0.00 0.00 1013.2
20260506222403 11 291 6.4 12.9 0.00 0.00 0.00 1013.2
20260506221902 11 303 4.8 12.9 0.00 0.00 0.00 1012.6
20260506221403 11 288 6.4 14.5 0.00 0.00 0.00 1012.9
20260506220946 11 289 8.0 14.5 0.00 0.00 0.00 1012.9
20260506220402 11 279 6.4 14.5 0.00 0.00 0.00 1013.2
20260506215903 12 311 4.8 14.5 0.00 0.00 0.00 1012.6
20260506215404 12 336 3.2 14.5 0.00 0.00 0.00 1013.2
20260506214903 12 292 3.2 14.5 0.00 0.00 0.00 1012.9
20260506214404 12 340 3.2 11.3 0.00 0.00 0.00 1012.6
20260506213903 12 339 4.8 12.9 0.00 0.00 0.00 1012.6
20260506213424 12 354 4.8 12.9 0.00 0.00 0.00 1012.6
20260506212903 12 324 4.8 9.7 0.00 0.00 0.00 1012.6
20260506212403 12 302 4.8 12.9 0.00 0.00 0.00 1012.9
20260506211402 12 348 4.8 16.1 0.00 0.00 0.00 1012.6
20260506210903 12 331 4.8 16.1 0.00 0.00 0.00 1012.2
20260506210403 12 302 9.7 16.1 0.00 0.00 0.00 1012.6
20260506205903 12 299 4.8 9.7 0.00 0.00 0.00 1012.2
20260506205404 12 328 1.6 16.1 0.00 0.00 0.00 1012.9
20260506204903 12 310 6.4 16.1 0.00 0.00 0.00 1012.2
20260506204425 12 291 6.4 14.5 0.00 0.00 0.00 1011.9
20260506203924 12 297 6.4 9.7 0.00 0.00 0.00 1012.2
20260506203403 12 25 3.2 14.5 0.00 0.00 0.00 1012.2
20260506202903 12 328 3.2 14.5 0.00 0.00 0.00 1012.6
20260506202404 12 305 3.2 9.7 0.00 0.00 0.00 1012.9
20260506201903 12 322 1.6 11.3 0.00 0.00 0.00 1012.2
20260506201403 12 301 4.8 11.3 0.00 0.00 0.00 1012.9
20260506200903 12 0 3.2 11.3 0.00 0.00 0.00 1012.6
20260506200402 12 37 3.2 11.3 0.00 0.00 0.00 1012.2
20260506195903 12 332 4.8 11.3 0.00 0.00 0.00 1012.6
20260506195402 12 323 4.8 12.9 0.00 0.00 0.00 1011.9
20260506194903 12 18 4.8 16.1 0.00 0.00 0.00 1012.6
20260506194403 12 6 4.8 17.7 0.00 0.00 0.00 1012.2
20260506193903 12 337 4.8 17.7 0.00 0.00 0.00 1012.2
20260506193403 12 341 6.4 16.1 0.00 0.00 0.00 1012.6
20260506192903 12 316 3.2 16.1 0.00 0.00 0.00 1011.9
20260506192403 12 314 6.4 16.1 0.00 0.00 0.00 1011.9
20260506191903 12 309 8.0 16.1 0.00 0.00 0.00 1012.6
20260506191403 13 0 4.8 16.1 0.00 0.00 0.00 1012.2
20260506190903 12 328 3.2 20.9 0.00 0.00 0.00 1012.6
20260506190403 12 332 6.4 20.9 0.00 0.00 0.00 1011.9
20260506185903 12 8 4.8 19.3 0.00 0.00 0.00 1012.2
20260506185403 13 323 6.4 12.9 0.00 0.00 0.00 1011.9
20260506184903 13 350 4.8 11.3 0.00 0.00 0.00 1012.2
20260506184446 13 28 4.8 14.5 0.00 0.00 0.00 1012.2
20260506183903 13 27 4.8 14.5 0.00 0.00 0.00 1011.9
20260506183403 13 5 6.4 14.5 0.00 0.00 0.00 1011.9
20260506182903 13 336 6.4 14.5 0.00 0.00 0.00 1011.9
20260506182403 13 4 3.2 19.3 0.00 0.00 0.00 1012.2
20260506181945 13 11 4.8 19.3 0.00 0.00 0.00 1011.5
20260506181403 12 352 3.2 16.1 0.00 0.00 0.00 1011.9
20260506180903 13 40 6.4 17.7 0.00 0.00 0.00 1011.9
20260506180403 13 43 4.8 17.7 0.00 0.00 0.00 1011.9
20260506175903 12 335 4.8 16.1 0.00 0.00 0.00 1011.9
20260506175403 12 287 8.0 22.5 0.00 0.00 0.00 1012.2
20260506174903 12 298 12.9 22.5 0.00 0.00 0.00 1012.9
20260506174403 12 331 3.2 16.1 0.00 0.00 0.00 1012.2
20260506173903 12 301 8.0 17.7 0.00 0.00 0.00 1012.6
20260506173403 12 277 8.0 17.7 0.00 0.00 0.00 1012.2
20260506172903 12 11 3.2 11.3 0.00 0.00 0.00 1011.9
20260506172424 12 339 3.2 14.5 0.00 0.00 0.00 1012.6
20260506171903 12 307 4.8 14.5 0.00 0.00 0.00 1012.6
20260506171402 12 3 4.8 19.3 0.00 0.00 0.00 1012.6
20260506170903 12 11 8.0 19.3 0.00 0.00 0.00 1012.2
20260506170402 12 329 6.4 19.3 0.00 0.00 0.00 1012.2
20260506165924 12 295 12.9 19.3 0.00 0.00 0.00 1012.6
20260506165402 12 18 4.8 16.1 0.00 0.00 0.00 1012.6
20260506164903 12 332 4.8 16.1 0.00 0.00 0.00 1012.6
20260506164403 12 330 6.4 16.1 0.00 0.00 0.00 1012.6
20260506163924 12 358 3.2 12.9 0.00 0.00 0.00 1011.9
20260506163403 11 11 4.8 14.5 0.00 0.00 0.00 1012.2
20260506162924 12 19 4.8 14.5 0.00 0.00 0.00 1011.9
20260506162404 11 41 6.4 12.9 0.00 0.00 0.00 1012.2
20260506161903 11 2 6.4 16.1 0.00 0.00 0.00 1012.2
20260506161403 11 0 6.4 16.1 0.00 0.00 0.00 1011.9
20260506160924 11 337 4.8 9.7 0.00 0.00 0.00 1012.2
20260506160403 11 271 6.4 9.7 0.00 0.00 0.00 1012.6
20260506155903 11 356 3.2 16.1 0.00 0.00 0.00 1011.9
20260506155404 11 21 6.4 16.1 0.00 0.00 0.00 1012.2
20260506154904 10 356 3.2 14.5 0.00 0.00 0.00 1012.6
20260506154403 10 295 3.2 14.5 0.00 0.00 0.00 1012.9
20260506153903 10 308 8.0 14.5 0.00 0.00 0.00 1012.6
20260506153403 10 310 3.2 14.5 0.00 0.00 0.00 1012.6
20260506152905 10 331 3.2 14.5 0.00 0.00 0.00 1012.6
20260506152403 10 334 6.4 14.5 0.00 0.00 0.00 1012.6
20260506151903 10 36 4.8 12.9 0.00 0.00 0.00 1011.5
20260506151402 10 313 3.2 14.5 0.00 0.00 0.00 1011.5
20260506150903 10 322 4.8 14.5 0.00 0.00 0.00 1011.5
20260506150424 10 5 4.8 16.1 0.00 0.00 0.00 1011.2
20260506145903 10 36 6.4 16.1 0.00 0.00 0.00 1011.5
20260506145403 10 16 6.4 16.1 0.00 0.00 0.00 1011.2
20260506144903 10 5 8.0 16.1 0.00 0.00 0.00 1011.2
20260506144404 10 317 4.8 12.9 0.00 0.00 0.00 1011.5
20260506143903 9 24 6.4 14.5 0.00 0.00 0.00 1011.2
20260506143424 9 313 8.0 14.5 0.00 0.00 0.00 1011.5
20260506142924 9 16 4.8 14.5 0.00 0.00 0.00 1011.5
20260506141403 9 29 3.2 11.3 0.00 0.00 0.00 1010.9
20260506140903 8 317 4.8 11.3 0.00 0.00 0.00 1010.9
20260506140403 8 333 3.2 11.3 0.00 0.00 0.00 1010.9
20260506135903 8 327 4.8 11.3 0.00 0.00 0.00 1011.5
20260506135403 8 285 3.2 12.9 0.00 0.00 0.00 1011.2
20260506134903 8 327 6.4 12.9 0.00 0.00 0.00 1011.2
20260506134402 8 15 3.2 12.9 0.00 0.00 0.00 1011.2
20260506133903 8 319 4.8 12.9 0.00 0.00 0.00 1010.9
20260506133446 8 0 0.0 14.5 0.00 0.00 0.00 1011.5
20260506132903 7 314 4.8 14.5 0.00 0.00 0.00 1011.2
20260506132403 7 319 4.8 11.3 0.00 0.00 0.00 1010.9
20260506131905 7 1 3.2 11.3 0.00 0.00 0.00 1010.5
20260506131403 7 11 3.2 11.3 0.00 0.00 0.00 1010.9
20260506130903 7 355 3.2 11.3 0.00 0.00 0.00 1011.5
20260506130403 7 333 3.2 11.3 0.00 0.00 0.00 1010.5
20260506125903 7 328 4.8 9.7 0.00 0.00 0.00 1010.5
20260506125403 7 20 4.8 9.7 0.00 0.00 0.00 1010.2
20260506124924 7 335 3.2 8.0 0.00 0.00 0.00 1010.5
20260506124403 7 339 3.2 9.7 0.00 0.00 0.00 1010.5
20260506123903 7 349 3.2 11.3 0.00 0.00 0.00 1010.2
20260506123403 6 346 3.2 12.9 0.00 0.00 0.00 1010.2
20260506122924 6 7 4.8 12.9 0.00 0.00 0.00 1010.9
20260506122403 6 312 4.8 9.7 0.00 0.00 0.00 1010.2
20260506121945 6 318 3.2 11.3 0.00 0.00 0.00 1010.2
20260506121424 6 11 4.8 11.3 0.00 0.00 0.00 1010.2
20260506120924 6 344 3.2 11.3 0.00 0.00 0.00 1009.9
20260506120424 6 7 3.2 11.3 0.00 0.00 0.00 1009.9
20260506115903 6 338 3.2 11.3 0.00 0.00 0.00 1009.9
20260506114424 6 349 3.2 9.7 0.00 0.00 0.00 1009.9
20260506113903 6 6 3.2 11.3 0.00 0.00 0.00 1009.5
20260506113403 6 21 3.2 11.3 0.00 0.00 0.00 1008.8
20260506112903 6 9 4.8 11.3 0.00 0.00 0.00 1008.5
20260506112403 6 26 4.8 9.7 0.00 0.00 0.00 1008.5
20260506111924 6 349 1.6 9.7 0.00 0.00 0.00 1008.8
20260506111403 6 336 3.2 9.7 0.00 0.00 0.00 1009.5
20260506110903 6 3 1.6 8.0 0.00 0.00 0.00 1009.5
20260506110424 6 355 3.2 12.9 0.00 0.00 0.00 1009.9
20260506105903 6 337 4.8 12.9 0.00 0.00 0.00 1008.8
20260506105403 6 336 3.2 6.4 0.00 0.00 0.00 1008.5
20260506104903 6 322 1.6 6.4 0.00 0.00 0.00 1008.5
20260506104403 6 349 1.6 8.0 0.00 0.00 0.00 1008.8
20260506103903 6 345 3.2 11.3 0.00 0.00 0.00 1008.2
20260506103403 6 340 3.2 11.3 0.00 0.00 0.00 1008.2
20260506102903 6 356 4.8 11.3 0.00 0.00 0.00 1008.2
20260506102403 6 349 3.2 9.7 0.00 0.00 0.00 1007.8
20260506101903 6 19 4.8 17.7 0.00 0.00 0.00 1008.2
20260506101403 6 0 4.8 17.7 0.00 0.00 0.00 1008.2
20260506100903 6 357 3.2 9.7 0.00 0.00 0.00 1008.8
20260506100403 6 323 3.2 11.3 0.00 0.00 0.00 1008.8
20260506095903 6 326 4.8 12.9 0.00 0.00 0.00 1008.2
20260506095403 6 334 3.2 12.9 0.00 0.00 0.00 1008.2
20260506094903 6 318 3.2 9.7 0.00 0.00 0.00 1007.8
20260506094403 6 337 3.2 9.7 0.00 0.00 0.00 1007.5
20260506093904 6 359 0.0 9.7 0.00 0.00 0.00 1007.8
20260506093403 6 345 1.6 9.7 0.00 0.00 0.00 1007.8
20260506092903 6 351 0.0 8.0 0.00 0.00 0.00 1007.5
20260506092403 6 38 4.8 11.3 0.00 0.00 0.00 1006.8
20260506091903 6 25 4.8 14.5 0.00 0.00 0.00 1007.1
20260506091424 6 22 3.2 14.5 0.00 0.00 0.00 1007.5
20260506090903 6 22 3.2 9.7 0.00 0.00 0.00 1007.8
20260506090403 6 16 3.2 11.3 0.00 0.00 0.00 1007.5
20260506085903 6 2 3.2 11.3 0.00 0.00 0.00 1007.5
20260506085403 6 352 3.2 14.5 0.00 0.00 0.00 1007.8
20260506084903 6 33 4.8 14.5 0.00 0.00 0.00 1007.8
20260506084403 6 31 6.4 16.1 0.00 0.00 0.00 1007.1
20260506083903 6 43 3.2 16.1 0.00 0.00 0.00 1007.1
20260506083403 6 5 4.8 11.3 0.00 0.00 0.00 1007.1
20260506082903 6 12 3.2 11.3 0.00 0.00 0.00 1007.8
20260506082404 6 25 3.2 11.3 0.00 0.00 0.00 1008.2
20260506081903 6 3 3.2 17.7 0.00 0.00 0.00 1007.5
20260506081403 6 349 6.4 19.3 0.00 0.00 0.00 1007.5
20260506080903 6 12 3.2 19.3 0.00 0.00 0.00 1007.1
20260506080403 6 357 4.8 17.7 0.00 0.00 0.00 1007.8
20260506073424 6 35 4.8 19.3 0.00 0.00 0.00 1008.2
20260506072903 6 358 4.8 19.3 0.00 0.00 0.00 1007.8
20260506072403 6 345 3.2 12.9 0.00 0.00 0.00 1007.8
20260506071903 6 356 3.2 12.9 0.00 0.00 0.00 1007.5
20260506071403 6 345 3.2 11.3 0.00 0.00 0.00 1007.5
20260506070903 6 332 3.2 16.1 0.00 0.00 0.00 1007.5
20260506070403 6 345 4.8 16.1 0.00 0.00 0.00 1007.8
20260506062404 7 7 6.4 14.5 0.00 0.00 0.00 1007.5
20260506061903 7 12 4.8 14.5 0.00 0.00 0.00 1007.1
20260506061424 7 14 4.8 14.5 0.00 0.00 0.00 1006.8
20260506060924 7 29 4.8 17.7 0.00 0.00 0.00 1007.1
20260506060403 7 43 6.4 17.7 0.00 0.00 0.00 1007.5
20260506050903 8 17 4.8 17.7 0.00 0.00 0.00 1008.2
20260506050403 8 351 3.2 17.7 0.00 0.00 0.00 1007.5
20260506044924 8 348 4.8 11.3 0.00 0.00 0.00 1006.8
20260506044403 8 333 3.2 16.1 0.00 0.00 0.00 1006.8
20260506043903 8 10 3.2 19.3 0.00 0.00 0.00 1006.8
20260506043403 8 22 8.0 19.3 0.00 0.00 0.00 1006.5
20260506042903 8 25 8.0 16.1 0.00 0.00 0.00 1007.1
20260506042402 8 358 6.4 14.5 0.00 0.00 0.00 1006.8
20260506041903 8 0 4.8 14.5 0.00 0.00 0.00 1007.1
20260506041403 8 23 6.4 19.3 0.00 0.00 0.00 1007.1
20260506040903 9 357 6.4 19.3 0.00 0.00 0.00 1007.1
20260506040403 9 4 4.8 14.5 0.00 0.00 0.00 1007.1
20260506035903 9 353 4.8 14.5 0.00 0.00 0.00 1006.8
20260506035403 9 357 3.2 11.3 0.00 0.00 0.00 1006.5
20260506034904 9 19 4.8 11.3 0.00 0.00 0.00 1005.8
20260506034403 9 0 1.6 9.7 0.00 0.00 0.00 1006.5
20260506033903 9 12 3.2 9.7 0.00 0.00 0.00 1005.8
20260506033403 9 17 4.8 9.7 0.00 0.00 0.00 1006.1